Terminal Aerodrome Forecast
Issued by NWS Portland, OR

Home | Current Version | Previous Version | Text Only | Print | Product List | Glossary On
Versions: 1 2 3 4 5 6 7 8 9 10 11 12 13 14 15 16 17 18 19 20 21 22 23 24 25 26 27 28 29 30 31 32 33 34 35 36
000
FTUS46 KPQR 232322
TAFSLE
TAF
KSLE 232322Z 2400/2424 16006KT P6SM -RA SCT025 BKN045 OVC070
     FM240400 18009KT 4SM -RA BR SCT012 BKN025 OVC035
     FM241800 20012KT P6SM -SHRA SCT025 BKN040=

USA.gov is the U.S. government's official web portal to all federal, state and local government web resources and services.